• In Portugal
  • List of Countries
  • For 7 days
  • Water Temperature
  • Satellite Maps
  • Weather Map
  • Weather Widgets
  • user-avatar
    Login

    Hourly Weather Sydney

    Today, 17 August, Friday

    Time Temperature Precipitation Wind Pressure Humidity
    00:00 +9°C° 0 mm 3 mps 760 mmHg 65%
    01:00 +8°C° 0 mm 3 mps 760 mmHg 67%
    02:00 +8°C° 0 mm 3 mps 760 mmHg 69%
    03:00 +7°C° 0 mm 3 mps 760 mmHg 71%
    04:00 +7°C° 0 mm 3 mps 760 mmHg 73%
    05:00 +5°C° 0 mm 3 mps 760 mmHg 74%
    06:00 +5°C° 0 mm 3 mps 760 mmHg 74%
    07:00 +5°C° 0 mm 3 mps 760 mmHg 74%
    08:00 +9°C° 0 mm 3 mps 760 mmHg 62%
    09:00 +12°C° 0 mm 3 mps 760 mmHg 50%
    10:00 +16°C° 0 mm 3 mps 760 mmHg 38%
    11:00 +17°C° 0 mm 3 mps 760 mmHg 34%
    12:00 +18°C° 0 mm 3 mps 759 mmHg 30%
    13:00 +20°C° 0 mm 2 mps 759 mmHg 26%
    14:00 +19°C° 0 mm 2 mps 759 mmHg 27%
    15:00 +19°C° 0 mm 2 mps 758 mmHg 28%
    16:00 +19°C° 0 mm 2 mps 758 mmHg 29%
    17:00 +17°C° 0 mm 2 mps 758 mmHg 34%
    18:00 +15°C° 0 mm 2 mps 759 mmHg 40%
    19:00 +13°C° 0 mm 2 mps 759 mmHg 45%
    20:00 +11°C° 0 mm 3 mps 760 mmHg 49%
    21:00 +10°C° 0 mm 4 mps 760 mmHg 52%
    22:00 +8°C° 0 mm 4 mps 760 mmHg 56%
    23:00 +7°C° 0 mm 4 mps 760 mmHg 59%

    Tomorrow, 18 August, Saturday

    Time Temperature Precipitation Wind Pressure Humidity
    00:00 +8°C° 0 mm 3 mps 760 mmHg 62%
    01:00 +7°C° 0 mm 3 mps 760 mmHg 65%
    02:00 +7°C° 0 mm 3 mps 759 mmHg 65%
    03:00 +7°C° 0 mm 3 mps 759 mmHg 66%
    04:00 +5°C° 0 mm 4 mps 759 mmHg 66%
    05:00 +5°C° 0 mm 4 mps 759 mmHg 65%
    06:00 +6°C° 0 mm 4 mps 759 mmHg 64%
    07:00 +6°C° 0 mm 4 mps 759 mmHg 63%
    08:00 +9°C° 0 mm 5 mps 758 mmHg 53%
    09:00 +14°C° 0 mm 5 mps 758 mmHg 43%
    10:00 +17°C° 0 mm 6 mps 757 mmHg 33%
    11:00 +20°C° 0 mm 6 mps 756 mmHg 30%
    12:00 +21°C° 0 mm 6 mps 755 mmHg 27%
    13:00 +22°C° 0 mm 6 mps 754 mmHg 24%
    14:00 +21°C° 0 mm 7 mps 754 mmHg 29%
    15:00 +18°C° 0 mm 8 mps 754 mmHg 35%
    16:00 +16°C° 0 mm 9 mps 754 mmHg 40%
    17:00 +15°C° 0 mm 9 mps 755 mmHg 44%
    18:00 +12°C° 0 mm 8 mps 756 mmHg 47%
    19:00 +10°C° 0 mm 8 mps 757 mmHg 51%
    20:00 +10°C° 0 mm 8 mps 757 mmHg 52%
    21:00 +9°C° 0 mm 8 mps 758 mmHg 53%
    22:00 +9°C° 0 mm 8 mps 758 mmHg 54%
    23:00 +7°C° 0 mm 8 mps 758 mmHg 54%

    Day after tomorrow, 19 August, Sunday

    Time Temperature Precipitation Wind Pressure Humidity
    00:00 +7°C° 0 mm 8 mps 757 mmHg 54%
    01:00 +7°C° 0 mm 9 mps 757 mmHg 54%
    02:00 +6°C° 0 mm 9 mps 757 mmHg 53%
    03:00 +6°C° 0 mm 9 mps 757 mmHg 52%
    04:00 +6°C° 0 mm 9 mps 757 mmHg 51%
    05:00 +6°C° 0 mm 9 mps 757 mmHg 50%
    06:00 +6°C° 0 mm 9 mps 757 mmHg 50%
    07:00 +6°C° 0 mm 9 mps 757 mmHg 49%
    08:00 +7°C° 0 mm 9 mps 758 mmHg 45%
    09:00 +10°C° 0 mm 9 mps 758 mmHg 40%
    10:00 +12°C° 0 mm 10 mps 758 mmHg 36%
    11:00 +12°C° 0 mm 10 mps 757 mmHg 35%
    12:00 +13°C° 0 mm 10 mps 757 mmHg 34%
    13:00 +13°C° 0 mm 10 mps 757 mmHg 33%
    14:00 +13°C° 0.1 mm 10 mps 757 mmHg 34%
    15:00 +12°C° 0.1 mm 10 mps 757 mmHg 35%
    16:00 +12°C° 0.1 mm 11 mps 757 mmHg 36%
    17:00 +11°C° 0.1 mm 10 mps 758 mmHg 38%
    18:00 +10°C° 0.1 mm 9 mps 758 mmHg 40%
    19:00 +8°C° 0.1 mm 9 mps 759 mmHg 42%
    20:00 +8°C° 0 mm 9 mps 759 mmHg 44%
    21:00 +8°C° 0 mm 10 mps 760 mmHg 46%
    22:00 +8°C° 0 mm 10 mps 760 mmHg 48%
    23:00 +8°C° 0.3 mm 10 mps 760 mmHg 50%

    20 August, Monday

    Time Temperature Precipitation Wind Pressure Humidity
    00:00 +8°C° 0.3 mm 10 mps 761 mmHg 52%
    01:00 +8°C° 0.3 mm 10 mps 761 mmHg 54%
    02:00 +7°C° 0.3 mm 10 mps 761 mmHg 55%
    03:00 +7°C° 0.3 mm 10 mps 761 mmHg 56%
    04:00 +6°C° 0.3 mm 9 mps 762 mmHg 58%
    05:00 +6°C° 0.1 mm 9 mps 762 mmHg 58%
    06:00 +5°C° 0.1 mm 9 mps 763 mmHg 57%
    07:00 +5°C° 0.1 mm 9 mps 763 mmHg 57%
    08:00 +7°C° 0.1 mm 9 mps 763 mmHg 50%
    09:00 +10°C° 0.1 mm 9 mps 763 mmHg 43%
    10:00 +12°C° 0.1 mm 9 mps 764 mmHg 37%
    11:00 +13°C° 0.1 mm 9 mps 763 mmHg 34%
    12:00 +15°C° 0.1 mm 9 mps 763 mmHg 31%
    13:00 +16°C° 0.1 mm 8 mps 763 mmHg 28%
    14:00 +16°C° 0 mm 8 mps 762 mmHg 28%
    15:00 +16°C° 0 mm 7 mps 762 mmHg 29%
    16:00 +16°C° 0 mm 7 mps 762 mmHg 29%
    17:00 +14°C° 0 mm 6 mps 763 mmHg 37%
    18:00 +11°C° 0 mm 6 mps 763 mmHg 44%
    19:00 +9°C° 0 mm 5 mps 764 mmHg 52%
    20:00 +8°C° 0 mm 5 mps 764 mmHg 55%
    21:00 +7°C° 0 mm 4 mps 764 mmHg 57%
    22:00 +7°C° 0 mm 4 mps 765 mmHg 60%
    23:00 +6°C° 0 mm 4 mps 764 mmHg 62%

    21 August, Tuesday

    Time Temperature Precipitation Wind Pressure Humidity
    00:00 +5°C° 0 mm 4 mps 764 mmHg 63%
    01:00 +5°C° 0 mm 3 mps 764 mmHg 65%
    02:00 +4°C° 0 mm 3 mps 764 mmHg 66%
    03:00 +4°C° 0 mm 3 mps 763 mmHg 67%
    04:00 +3°C° 0 mm 3 mps 763 mmHg 68%
    05:00 +3°C° 0 mm 3 mps 763 mmHg 68%
    06:00 +3°C° 0 mm 3 mps 764 mmHg 67%
    07:00 +3°C° 0 mm 3 mps 764 mmHg 67%
    08:00 +7°C° 0 mm 3 mps 764 mmHg 57%
    09:00 +11°C° 0 mm 3 mps 764 mmHg 46%
    10:00 +15°C° 0 mm 2 mps 763 mmHg 36%
    11:00 +16°C° 0 mm 2 mps 763 mmHg 32%
    12:00 +18°C° 0 mm 2 mps 762 mmHg 28%
    13:00 +21°C° 0 mm 1 mps 761 mmHg 23%
    14:00 +19°C° 0 mm 2 mps 761 mmHg 24%
    15:00 +19°C° 0 mm 2 mps 761 mmHg 25%
    16:00 +18°C° 0 mm 2 mps 761 mmHg 26%
    17:00 +16°C° 0 mm 2 mps 762 mmHg 33%
    18:00 +14°C° 0 mm 2 mps 762 mmHg 40%
    19:00 +13°C° 0 mm 1 mps 763 mmHg 48%
    20:00 +11°C° 0 mm 1 mps 764 mmHg 53%
    21:00 +10°C° 0 mm 1 mps 764 mmHg 58%
    22:00 +8°C° 0 mm 2 mps 764 mmHg 63%
    23:00 +8°C° 0 mm 2 mps 764 mmHg 65%

    22 August, Wednesday

    Time Temperature Precipitation Wind Pressure Humidity
    00:00 +7°C° 0 mm 2 mps 764 mmHg 68%
    01:00 +7°C° 0 mm 2 mps 764 mmHg 70%
    02:00 +6°C° 0 mm 2 mps 764 mmHg 71%
    03:00 +6°C° 0 mm 2 mps 764 mmHg 72%
    04:00 +6°C° 0 mm 2 mps 764 mmHg 72%
    05:00 +6°C° 0 mm 2 mps 765 mmHg 72%
    06:00 +6°C° 0 mm 2 mps 765 mmHg 71%
    07:00 +6°C° 0 mm 2 mps 766 mmHg 71%
    08:00 +9°C° 0 mm 2 mps 765 mmHg 60%
    09:00 +13°C° 0 mm 2 mps 765 mmHg 49%
    10:00 +17°C° 0 mm 2 mps 765 mmHg 38%
    11:00 +18°C° 0 mm 2 mps 765 mmHg 35%
    12:00 +20°C° 0 mm 2 mps 764 mmHg 32%
    13:00 +21°C° 0 mm 2 mps 763 mmHg 29%
    14:00 +21°C° 0 mm 2 mps 763 mmHg 30%
    15:00 +20°C° 0 mm 3 mps 763 mmHg 32%
    16:00 +20°C° 0 mm 4 mps 763 mmHg 33%
    17:00 +18°C° 0 mm 4 mps 763 mmHg 42%
    18:00 +14°C° 0 mm 4 mps 764 mmHg 50%
    19:00 +12°C° 0 mm 4 mps 764 mmHg 59%
    20:00 +12°C° 0 mm 4 mps 765 mmHg 61%
    21:00 +11°C° 0 mm 4 mps 765 mmHg 64%
    22:00 +10°C° 0 mm 4 mps 765 mmHg 67%
    23:00 +8°C° 0 mm 4 mps 765 mmHg 67%
    Show more